San Francisco, CA

11:44 AM PDT on March 30, 2017 (GMT -0700)
The Castro | | Change Station
Active Advisory: Wind Advisory

Elev 207 ft 37.76 °N, 122.44 °W | Updated 1 second ago

Clear
Clear
61.3 °F
Feels Like 61.3 °F
N
4.0
Wind Variable Wind from NNW

Today
High -- | Low -- °F
--% Chance of Precip.
Yesterday
High -- | Low -- °F
Precip. -- in
Pressure 30.14 in
Visibility 10.0 miles
Clouds Few 20000 ft
Dew Point 55 °F
Humidity 80%
Rainfall 0.00 in
Snow Depth Not available.
6:57 AM 7:31 PM
Waxing Crescent, 10% visible
METAR KSFO 301756Z 27013KT 10SM FEW200 16/05 A3014 RMK AO2 SLP205 T01560050 10156 20106 51009
Pressure 30.14 in
Visibility 10.0 miles
Clouds Few 20000 ft
Dew Point 55 °F
Humidity 80%
Rainfall 0.00 in
Snow Depth Not available.
6:57 AM 7:31 PM
Waxing Crescent, 10% visible
METAR KSFO 301756Z 27013KT 10SM FEW200 16/05 A3014 RMK AO2 SLP205 T01560050 10156 20106 51009

Get Your Daily Forecast Email!

Thanks for signing up!

Be on the lookout for a verification email in your inbox.

You'll start receiving severe weather alerts in your inbox..

×

10-Day Weather Forecast

Almanac

Astronomy

Mar. 30, 2017 Rise Set
Actual Time
Civil Twilight
Nautical Twilight
Astronomical Twilight
Moon
Length of Visible Light
Length of Day
Tomorrow will be .
, % of the Moon is Illuminated

Today's Extremes

State Highs State Lows

Community

WunderPhotos

Upload Photos

1,962,540 photos uploaded!

WunderBlog® & News

Nearby

Air Quality

  Air Quality AQ Index Pollutant
Not available.

Snow Depth

Station Depth Elevation

Earthquake Activity

City Distance Mag. Time & Date
Minimum magnitude displayed is 2.5.

Earthquake Activity

City Distance Mag. Time & Date
Minimum magnitude displayed is 2.5.

Coastal Water Temperatures

Place Temperature

Stations

Nearby Weather Stations

Station Location Temp. Windchill Dew Point Humidity Wind Precip. Elev Updated Type
                   

Watches & Warnings

Wind Advisory
Issued: 12:35 AM PDT Mar. 30, 2017 – National Weather Service

... Wind Advisory remains in effect from noon today to 8 PM PDT
this evening...

* timing... winds will increase by midday Thursday and remain
strong and gusty into Thursday evening. Strongest winds are
expected from mid afternoon through early evening Thursday.

* Winds... northwest winds of 20 to 30 mph are forecast along
with gusts up to 45 mph.

* Impacts... possible downed trees and limbs, blowing debris, and
local power outages.

Precautionary/preparedness actions...

A Wind Advisory means that wind gusts of at least 45 mph are
expected. Winds this strong can make driving difficult...
especially for high profile vehicles. Use extra caution.